DLH845 ENBR-ENVA

Flight info

Callsign DLH845
Flight time N/A
Altitude 26000
Route INTUM NELSU VA715 ADEXA VA710 TIKMU ENVA
Aircraft A346/M-VGDW/C

Departure

Time N/A
Airport Bergen Airport, Flesland (ENBR)

Arrival

Time 2026-04-29 10:08
Airport Trondheim Airport, Værnes (ENVA)
Time Latitude Longitude Altitude Speed Heading
2026-04-29 09:35 62.00690 7.59243 26464 ft 434 kts 35°
2026-04-29 09:35 62.03018 7.63342 26477 ft 435 kts 35°
2026-04-29 09:36 62.05351 7.67462 26472 ft 436 kts 35°
2026-04-29 09:36 62.07697 7.71607 26459 ft 436 kts 35°
2026-04-29 09:36 62.10037 7.75750 26458 ft 436 kts 35°
2026-04-29 09:36 62.12373 7.79896 26456 ft 436 kts 35°
2026-04-29 09:37 62.14708 7.84048 26452 ft 436 kts 35°
2026-04-29 09:37 62.17040 7.88205 26454 ft 436 kts 35°
2026-04-29 09:37 62.19383 7.92390 26446 ft 436 kts 35°
2026-04-29 09:37 62.21713 7.96561 26449 ft 436 kts 35°
2026-04-29 09:38 62.24039 8.00734 26446 ft 436 kts 35°
2026-04-29 09:38 62.26364 8.04915 26461 ft 434 kts 35°
2026-04-29 09:38 62.28672 8.09073 26458 ft 432 kts 35°
2026-04-29 09:38 62.30975 8.13233 26453 ft 433 kts 35°
2026-04-29 09:39 62.33287 8.17414 26446 ft 434 kts 35°
2026-04-29 09:39 62.35596 8.21597 26437 ft 434 kts 35°
2026-04-29 09:39 62.37902 8.25782 26436 ft 434 kts 35°
2026-04-29 09:39 62.40208 8.29978 26434 ft 434 kts 35°
2026-04-29 09:40 62.42517 8.34190 26434 ft 434 kts 35°
2026-04-29 09:40 62.44820 8.38400 26435 ft 434 kts 35°
2026-04-29 09:40 62.47127 8.42624 26432 ft 434 kts 35°
2026-04-29 09:40 62.49428 8.46848 26415 ft 434 kts 35°
2026-04-29 09:41 62.51729 8.51079 26435 ft 434 kts 36°
2026-04-29 09:41 62.54029 8.55318 26436 ft 434 kts 36°
2026-04-29 09:41 62.56329 8.59567 26438 ft 434 kts 36°
2026-04-29 09:41 62.58629 8.63826 26436 ft 436 kts 35°
2026-04-29 09:42 62.60939 8.68110 26426 ft 437 kts 35°
2026-04-29 09:42 62.63250 8.72404 26433 ft 437 kts 36°
2026-04-29 09:42 62.65558 8.76703 26435 ft 437 kts 35°
2026-04-29 09:42 62.67869 8.81018 26414 ft 437 kts 36°
2026-04-29 09:43 62.70175 8.85332 26433 ft 437 kts 36°
2026-04-29 09:43 62.72446 8.89593 26414 ft 437 kts 36°
2026-04-29 09:43 62.74750 8.93923 26447 ft 437 kts 36°
2026-04-29 09:43 62.77076 8.98306 26422 ft 434 kts 36°
2026-04-29 09:44 62.79356 9.02611 26414 ft 433 kts 36°
2026-04-29 09:44 62.81638 9.06924 26412 ft 433 kts 36°
2026-04-29 09:44 62.83886 9.11182 26430 ft 433 kts 36°
2026-04-29 09:44 62.86168 9.15520 26424 ft 435 kts 35°
2026-04-29 09:45 62.88452 9.19865 26417 ft 435 kts 35°
2026-04-29 09:45 62.90738 9.24223 26413 ft 435 kts 36°
2026-04-29 09:45 62.93024 9.28589 26407 ft 435 kts 36°
2026-04-29 09:45 62.95309 9.32964 26403 ft 436 kts 36°
2026-04-29 09:46 62.97595 9.37353 26405 ft 436 kts 36°
2026-04-29 09:46 62.99874 9.41736 26402 ft 435 kts 36°
2026-04-29 09:46 63.02154 9.46132 26405 ft 436 kts 36°
2026-04-29 09:46 63.04433 9.50538 26407 ft 436 kts 36°
2026-04-29 09:47 63.06712 9.54952 26402 ft 436 kts 36°
2026-04-29 09:47 63.08897 9.59617 26382 ft 442 kts 45°
2026-04-29 09:47 63.10576 9.65393 26394 ft 453 kts 59°
2026-04-29 09:47 63.11592 9.72070 26406 ft 465 kts 73°
2026-04-29 09:48 63.12149 9.79170 26408 ft 467 kts 76°
2026-04-29 09:48 63.12629 9.86186 26332 ft 455 kts 76°
2026-04-29 09:48 63.13083 9.93015 26232 ft 442 kts 76°
2026-04-29 09:48 63.13533 9.99655 26099 ft 430 kts 75°
2026-04-29 09:49 63.13971 10.06045 25899 ft 409 kts 75°
2026-04-29 09:49 63.14389 10.12108 25737 ft 388 kts 74°
2026-04-29 09:49 63.14794 10.17923 25261 ft 377 kts 74°
2026-04-29 09:49 63.15193 10.23601 24764 ft 368 kts 73°
2026-04-29 09:50 63.15580 10.29140 24319 ft 360 kts 73°
2026-04-29 09:50 63.15955 10.34560 23806 ft 352 kts 73°
2026-04-29 09:50 63.16322 10.39870 23252 ft 345 kts 73°
2026-04-29 09:50 63.16680 10.45079 22699 ft 339 kts 73°
2026-04-29 09:51 63.17034 10.50250 21931 ft 340 kts 74°
2026-04-29 09:51 63.17388 10.55442 21202 ft 341 kts 74°
2026-04-29 09:51 63.17732 10.60558 20578 ft 338 kts 73°
2026-04-29 09:51 63.18165 10.65707 19971 ft 333 kts 70°
2026-04-29 09:52 63.18734 10.70562 19370 ft 327 kts 66°
2026-04-29 09:52 63.19397 10.75358 18775 ft 324 kts 65°
2026-04-29 09:52 63.20071 10.80124 18108 ft 322 kts 65°
2026-04-29 09:52 63.20739 10.84871 17440 ft 320 kts 65°
2026-04-29 09:53 63.21399 10.89587 16782 ft 319 kts 65°
2026-04-29 09:53 63.22052 10.94274 16140 ft 317 kts 65°
2026-04-29 09:53 63.22699 10.98942 15516 ft 315 kts 65°
2026-04-29 09:53 63.23340 11.03584 14907 ft 314 kts 65°
2026-04-29 09:54 63.23976 11.08205 14293 ft 311 kts 65°
2026-04-29 09:54 63.24606 11.12787 13630 ft 309 kts 65°
2026-04-29 09:54 63.25232 11.17343 12974 ft 307 kts 66°
2026-04-29 09:54 63.25853 11.21878 12327 ft 305 kts 66°
2026-04-29 09:55 63.26469 11.26382 11703 ft 304 kts 66°
2026-04-29 09:55 63.27083 11.30900 11115 ft 302 kts 67°
2026-04-29 09:55 63.27682 11.35333 10608 ft 296 kts 67°
2026-04-29 09:55 63.28269 11.39697 10175 ft 294 kts 67°
2026-04-29 09:56 63.28865 11.44099 9679 ft 298 kts 68°
2026-04-29 09:56 63.29464 11.48541 9173 ft 301 kts 68°
2026-04-29 09:56 63.30063 11.53029 8804 ft 302 kts 68°
2026-04-29 09:56 63.30659 11.57517 8390 ft 302 kts 68°
2026-04-29 09:57 63.31254 11.62002 8027 ft 301 kts 68°
2026-04-29 09:57 63.31849 11.66479 7681 ft 298 kts 69°
2026-04-29 09:57 63.32432 11.70875 7385 ft 294 kts 68°
2026-04-29 09:57 63.33306 11.74856 7104 ft 280 kts 43°
2026-04-29 09:58 63.34759 11.77468 6848 ft 261 kts 18°
2026-04-29 09:58 63.36442 11.78491 6572 ft 244 kts 356°
2026-04-29 09:58 63.38073 11.78075 6298 ft 231 kts 337°
2026-04-29 09:58 63.39462 11.76508 6066 ft 219 kts 319°
2026-04-29 09:59 63.40495 11.74127 5838 ft 209 kts 302°
2026-04-29 09:59 63.41111 11.71265 5643 ft 201 kts 287°
2026-04-29 09:59 63.41343 11.68270 5486 ft 191 kts 279°
2026-04-29 09:59 63.41584 11.65405 5260 ft 182 kts 287°
2026-04-29 10:00 63.41887 11.63687 5106 ft 177 kts 295°
2026-04-29 10:00 63.42618 11.60543 4792 ft 163 kts 297°
2026-04-29 10:00 63.43138 11.58369 4594 ft 163 kts 297°
2026-04-29 10:00 63.43679 11.56140 4376 ft 162 kts 297°
2026-04-29 10:01 63.44217 11.53951 4109 ft 157 kts 297°
2026-04-29 10:01 63.44568 11.52538 3981 ft 150 kts 297°
2026-04-29 10:01 63.45214 11.49925 3765 ft 142 kts 296°
2026-04-29 10:01 63.45576 11.47960 3557 ft 134 kts 280°
2026-04-29 10:02 63.45654 11.45798 3069 ft 152 kts 272°
2026-04-29 10:02 63.45661 11.43347 2773 ft 158 kts 271°
2026-04-29 10:02 63.45659 11.41621 2775 ft 167 kts 271°
2026-04-29 10:02 63.45652 11.38968 2762 ft 174 kts 270°
2026-04-29 10:03 63.45646 11.36214 2746 ft 179 kts 270°
2026-04-29 10:03 63.45635 11.33388 2719 ft 177 kts 270°
2026-04-29 10:03 63.45618 11.30706 2685 ft 167 kts 270°
2026-04-29 10:03 63.45599 11.28190 2616 ft 156 kts 270°
2026-04-29 10:04 63.45580 11.25787 2619 ft 158 kts 270°
2026-04-29 10:04 63.45567 11.23254 2609 ft 165 kts 270°
2026-04-29 10:04 63.45561 11.20792 2514 ft 156 kts 271°
2026-04-29 10:04 63.45573 11.18332 2389 ft 160 kts 272°
2026-04-29 10:05 63.45602 11.15821 2381 ft 155 kts 272°
2026-04-29 10:05 63.45624 11.13526 2197 ft 145 kts 271°
2026-04-29 10:05 63.45643 11.11264 1805 ft 152 kts 271°
2026-04-29 10:05 63.45660 11.08792 1643 ft 162 kts 271°
2026-04-29 10:06 63.45681 11.06322 1518 ft 153 kts 271°
2026-04-29 10:06 63.45701 11.03993 1196 ft 147 kts 272°
2026-04-29 10:06 63.45728 11.01688 877 ft 148 kts 271°
2026-04-29 10:06 63.45746 10.99385 702 ft 146 kts 270°
2026-04-29 10:07 63.45749 10.97171 437 ft 145 kts 269°
2026-04-29 10:07 63.45747 10.94976 213 ft 137 kts 270°
2026-04-29 10:07 63.45755 10.92952 51 ft 121 kts 271°
2026-04-29 10:07 63.45763 10.91481 45 ft 68 kts 270°
2026-04-29 10:08 63.45757 10.90732 42 ft 37 kts 262°
2026-04-29 10:08 63.45652 10.90387 41 ft 20 kts 186°
2026-04-29 10:08 63.45608 10.90537 42 ft 13 kts 101°
2026-04-29 10:08 63.45598 10.90751 43 ft 15 kts 94°
2026-04-29 10:09 63.45594 10.90995 44 ft 17 kts 91°
2026-04-29 10:09 63.45597 10.91255 45 ft 9 kts 92°
2026-04-29 10:09 63.45554 10.91355 46 ft 10 kts 166°
2026-04-29 10:09 63.45520 10.91364 47 ft 0 kts 176°